Location: Newark
(52.2583°N, 7.1190°W)
Time: 20:32:37
(UTC+00:00)

N. Korean satellite - Pass Details

Date: 20 October 2019
Orbit: 456 x 506 km, 97.2° (Epoch: 14 November)

Event Time Altitude Azimuth Distance (km) Brightness Sun altitude
Rises 18:34:24 0° 209° (SSW) 2,469 10.6 -11.5°
Reaches altitude 10° 18:37:09 10° 235° (SW) 1,605 10.1 -11.9°
Maximum altitude 18:39:09 15° 271° (W) 1,350 10.2 -12.2°
Drops below altitude 10° 18:41:11 10° 306° (NW) 1,622 10.0 -12.5°
Sets 18:43:59 0° 332° (NNW) 2,514 10.6 -12.9°
